Weather History for Fort Knox, KY

Change the Weather History Date:

Monday, September 23, 2013

  Actual Average Record
Temperature  
Mean Temperature 60 °F -  
Max Temperature 72 °F 74 °F 94 °F (2010)
Min Temperature 48 °F 52 °F 33 °F (2012)
Degree Days  
Heating Degree Days 5    
Growing Degree Days 10 (Base 50)    
Moisture  
Dew Point 50 °F    
Average Humidity 70    
Maximum Humidity 93    
Minimum Humidity 48    
Precipitation  
Precipitation 0.00 in - - ()
Sea Level Pressure  
Sea Level Pressure 30.02 in    
Wind  
Wind Speed 5 mph (NE)    
Max Wind Speed 10 mph    
Max Gust Speed 17 mph    
Visibility 10 miles    
Events Rain    
Averages and records for this station are not official NWS values.
T = Trace of Precipitation, MM = Missing Value Source: NWS Daily Summary

Daily Weather History Graph

Daily Weather History Graph

Search for Another Location

Airport:

Trip Planner

Search our weather history database for the weather conditions in past years. The results will help you decide how hot, cold, wet, or windy it might be!

Date:

Astronomy

Sep. 23, 2013 Rise Set
Actual Time 7:32 AM EDT 7:38 PM EDT
Civil Twilight 7:06 AM EDT 8:05 PM EDT
Nautical Twilight 6:35 AM EDT 8:35 PM EDT
Astronomical Twilight 6:04 AM EDT 9:06 PM EDT
Moon 10:15 PM EDT (9/23) 11:46 AM EDT (9/23)
Length of Visible Light 12h 58m
Length of Day
12h 06m
Waning Gibbous, 81% of the Moon is Illuminated
Sep 23
Waning Gibbous
Sep 26
Last Quarter
Oct 4
New
Oct 11
First Quarter
Oct 18
Full

Hourly Weather History & Observations

Time (EDT) Temp. Dew Point Humidity Pressure Visibility Wind Dir Wind Speed Gust Speed Precip Events Conditions
12:58 AM 55.4 °F 49.1 °F 79% 29.99 in 10.0 mi Calm Calm - N/A   Clear
1:58 AM 52.9 °F 49.1 °F 87% 29.99 in 10.0 mi North 5.8 mph - N/A   Clear
2:58 AM 51.6 °F 47.7 °F 86% 29.99 in 10.0 mi North 4.6 mph - N/A   Clear
3:58 AM 51.1 °F 47.7 °F 88% 29.99 in 10.0 mi NNE 4.6 mph - N/A   Clear
4:58 AM 48.6 °F 46.8 °F 93% 30.01 in 10.0 mi North 4.6 mph - N/A   Clear
5:58 AM 48.6 °F 46.2 °F 92% 30.01 in 10.0 mi NE 3.5 mph - N/A   Clear
6:58 AM 48.6 °F 46.2 °F 92% 30.03 in 10.0 mi NE 3.5 mph - N/A   Clear
7:58 AM 48.6 °F 46.4 °F 92% 30.05 in 10.0 mi NE 4.6 mph - N/A   Clear
8:58 AM 52.9 °F 48.9 °F 86% 30.06 in 10.0 mi NE 3.5 mph - N/A   Clear
9:58 AM 56.5 °F 51.1 °F 82% 30.07 in 10.0 mi ENE 4.6 mph - N/A   Clear
10:58 AM 61.9 °F 53.1 °F 73% 30.06 in 10.0 mi East 6.9 mph - N/A   Clear
11:58 AM 64.8 °F 52.9 °F 65% 30.06 in 10.0 mi NE 10.4 mph - N/A   Clear
12:58 PM 67.8 °F 50.9 °F 55% 30.05 in 10.0 mi ENE 10.4 mph - N/A   Clear
1:58 PM 70.0 °F 51.6 °F 52% 30.04 in 10.0 mi NNE 8.1 mph - N/A   Clear
2:16 PM 69.8 °F 51.8 °F 53% 30.03 in 10.0 mi Variable 6.9 mph - N/A Rain Light Rain
2:20 PM 69.8 °F 51.8 °F 53% 30.03 in 10.0 mi Variable 2.3 mph - N/A Rain Light Rain
2:32 PM 69.8 °F 51.8 °F 53% 30.03 in 10.0 mi NE 8.1 mph - N/A   Clear
2:58 PM 71.1 °F 51.3 °F 49% 30.02 in 10.0 mi NE 8.1 mph - 0.00 in   Clear
3:58 PM 71.6 °F 51.1 °F 48% 30.00 in 10.0 mi ENE 9.2 mph 17.3 mph N/A   Clear
4:58 PM 72.5 °F 52.0 °F 48% 30.01 in 10.0 mi ENE 5.8 mph - N/A   Clear
5:58 PM 71.6 °F 51.8 °F 50% 30.01 in 10.0 mi NE 9.2 mph - N/A   Clear
6:58 PM 69.6 °F 52.2 °F 54% 30.01 in 10.0 mi ENE 5.8 mph - N/A   Clear
7:58 PM 65.1 °F 53.6 °F 66% 30.00 in 10.0 mi NE 3.5 mph - N/A   Clear
8:58 PM 61.5 °F 52.5 °F 72% 30.02 in 10.0 mi NE 3.5 mph - N/A   Clear
9:58 PM 59.5 °F 51.4 °F 75% 30.01 in 10.0 mi NE 5.8 mph - N/A   Clear
10:58 PM 59.5 °F 50.7 °F 73% 30.01 in 10.0 mi NE 6.9 mph - N/A   Clear
11:58 PM 59.2 °F 50.5 °F 73% 30.01 in 10.0 mi NE 4.6 mph - N/A   Clear